Regional Weather Roundup
Issued by NWS Green Bay, WI

Home | Current Version | Previous Version | Graphics & Text | Print | Product List | Glossary Off
Versions: 1 2 3 4 5 6 7 8 9 10 11 12 13 14 15 16 17 18 19 20 21 22 23 24 25 26 27 28 29 30 31 32 33 34 35 36 37 38 39 40 41 42 43 44 45 46 47 48 49 50

000
ASUS43 KGRB 142111
RWRGRB

NORTH-CENTRAL AND NORTHEAST WISCONSIN REGIONAL WEATHER ROUNDUP
NATIONAL WEATHER SERVICE GREEN BAY WI
300 PM CST SUN FEB 14 2016

WIZ005-009-010>012-018-019-142200-
NORTH CENTRAL WISCONSIN

CITY           SKY/WX    TMP DP  RH WIND       PRES   REMARKS
IRONWOOD       PTSUNNY   19  -6  32 S12G20    29.94F WCI   7
MANITOWISH WTR CLOUDY    18  -3  39 S12G20    29.94F WCI   6
ARBOR VITAE    CLOUDY    22   0  39 S16       29.95F WCI   8
EAGLE RIVER    SUNNY     21  -2  36 S12G20    29.96F WCI   9
LAND O LAKES   SUNNY     22   1  39 SE16G23   29.97F WCI   9
RHINELANDER    CLOUDY    19   2  47 SE13G22   29.98F WCI   6
PHILLIPS       CLOUDY    18   4  54 S17       29.95F WCI   3
ANTIGO         CLOUDY    17   6  61 S18       30.02F WCI   1
TOMAHAWK       CLOUDY    20   1  43 SE8       29.99F WCI  10
MERRILL        NOT AVBL
$$

WIZ013-073-142200-
NORTHEAST WISCONSIN

CITY           SKY/WX    TMP DP  RH WIND       PRES   REMARKS
IRON MOUNTAIN  CLOUDY    19   9  65 S20G26    30.06F WCI   3
MARINETTE      CLOUDY    16  12  86 SE6       30.16F WCI   7
OCONTO         CLOUDY    17  13  84 SE8       30.15F WCI   7
$$

WIZ017-030-035>037-045-142200-
CENTRAL WISCONSIN

CITY           SKY/WX    TMP DP  RH WIND       PRES   REMARKS
MEDFORD        LGT SNOW  16   7  65 SE13      29.98F WCI   3
WAUSAU         CLOUDY    19   3  49 SE13      30.02F WCI   6
MOSINEE        LGT SNOW  18   7  62 SE16      30.03F WCI   3
MARSHFIELD     LGT SNOW  15   8  73 SE12      30.00F WCI   2
WISC RAPIDS    LGT SNOW  16   7  67 SE15G23   30.05F WCI   1
STEVENS POINT  LGT SNOW  15   9  75 SE13      30.05F WCI   1
WAUPACA        LGT SNOW  21  13  70 SE12      30.09F WCI   9
SHAWANO        FLURRIES  22  14  70 SE9G16    30.11F
CLINTONVILLE   CLOUDY    21  12  68 S18       30.10F WCI   6
WAUTOMA        LGT SNOW  18  12  79 SE9       30.07F WCI   6
$$

WIZ038-039-048-051-142200-
FOX VALLEY

CITY           SKY/WX    TMP DP  RH WIND       PRES   REMARKS
NWS GREEN BAY  CLOUDY    20  13  74 S17       30.14F WCI   5
APPLETON       FLURRIES  21  12  68 SE16G22   30.08F WCI   7
OSHKOSH        LGT SNOW  19  12  74 SE15      30.10F WCI   5
FOND DU LAC    LGT SNOW  19  14  81 SE14      30.10F WCI   6
$$

WIZ022-050-052-142200-
EAST CENTRAL WISCONSIN

CITY           SKY/WX    TMP DP  RH WIND       PRES   REMARKS
EPHRAIM        FLURRIES  20  12  71 S14G20    30.16S WCI   7
STURGEON BAY   CLOUDY    19  10  68 S18G24    30.18F WCI   4
MANITOWOC      FLURRIES  21  14  74 SE18G24   30.16F WCI   6
SHEBOYGAN      CLOUDY    20  12  71 SE14G22   30.14F WCI   7
$$

LMZ563-521-522-541>543-142200-
LAKESHORE

STATION/POSITION TIME  TEMP    WIND        PRES    VSBY  WAVE
                       AIR SEA DIR/SP/G                  HT/PER
                 (UTC) (F)     (DEG/KT/KT) (MB)    (MI)  (FT/S)
SHEBOYGAN LKSHOR 2100   21     140/ 22/ 26 1022.3F
KEWAUNEE LKSHORE 2000   21     160/ 19/ 26 1021.4F
CHAMBERS ISLAND  2000   16      10/  5/  6 1022.0F
MENOMINEE LKSHOR 2000   14      40/  1     1021.0F
$$



USA.gov is the U.S. government's official web portal to all federal, state and local government web resources and services.